Home > Time Zones > World Clock > Weather > India > Alwar > Past weeks

Flag for India Weather past 2 weeks in Alwar, Rajasthan, India

Now
79 °F

Broken clouds.


Feels Like: 79 °F
Forecast: 67 / 89 °F
Wind: 6 mph from Southeast

Location: Jaipur / Sanganer

Current Time: Oct 25, 2014 at 9:27:29 AM

Latest Report: Oct 25, 2014 at 8:00 AM


Visibility: 2 mi

Pressure: 29.98 "Hg

Humidity: 42%

Dew point: 54 °F

Location of AlwarLocation

Historic Weather in Alwar — Graph

°F

Alwar temperature yesterday

Maximum temperature yesterday: 93 °F (at 2:00 PM)
Minimum temperature yesterday: 75 °F (at 6:00 AM)
Average temperature yesterday: 83 °F

Past Weeks' High & Low Weather Summary

 TemperatureHumidityPressure
High95 °F (Oct 10, 3:00 PM)94% (Oct 16, 5:00 AM)30.12 "Hg (Oct 16, 5:00 AM)
Low64 °F (Oct 18, 6:00 AM)13% (Oct 11, 4:00 PM)29.65 "Hg (Oct 11, 3:00 PM)
Average80 °F46%29.95 "Hg
* Reported Oct 10 8:00 AM — Oct 25 8:00 AM, Alwar, Weather by CustomWeather, © 2014

Note: Actual official high and low records may vary slightly from our data, if they occured in-between our weather recording intervals... More about our weather records

Advertising

Alwar weather history for previous 24 hours

 ConditionsComfort  
Time TempWeatherWind HumidityBarometerVisibility
8:00 AM
Oct 25
79 °FBroken clouds.6 mph42%29.98 "Hg1 mi
7:30 AM79 °FBroken clouds.8 mph42%29.98 "Hg1 mi
7:00 AM77 °FPassing clouds.3 mph44%29.95 "Hg1 mi
6:00 AM77 °FPassing clouds.9 mph47%29.95 "Hg1 mi
5:00 AM77 °FPassing clouds.8 mph44%29.92 "Hg1 mi
3:00 AM77 °FPartly cloudy.5 mph44%29.92 "Hg1 mi
2:00 AM77 °FPartly cloudy.5 mph44%29.92 "Hg1 mi
1:00 AM77 °FPartly cloudy.3 mph44%29.92 "Hg1 mi
12:00 AM79 °FPartly cloudy.3 mph42%29.92 "Hg1 mi
11:00 PM
Oct 24
79 °FPartly cloudy.3 mph42%29.95 "Hg1 mi
10:00 PM79 °FPartly cloudy.2 mph45%29.95 "Hg1 mi
9:00 PM79 °FPartly cloudy.5 mph45%29.95 "Hg1 mi
8:00 PM82 °FPartly cloudy.No wind40%29.92 "Hg1 mi
7:00 PM82 °FPartly cloudy.No wind42%29.89 "Hg1 mi
6:00 PM86 °FBroken clouds.No wind33%29.89 "Hg1 mi
5:00 PM90 °FBroken clouds.5 mph27%29.89 "Hg2 mi
4:00 PM90 °FBroken clouds.3 mph27%29.89 "Hg2 mi
3:00 PM90 °FScattered clouds.7 mph27%29.89 "Hg2 mi
2:00 PM93 °FHaze.3 mph23%29.89 "Hg2 mi
1:00 PM91 °FHaze.5 mph24%29.92 "Hg1 mi
12:00 PM91 °FHaze.2 mph30%29.95 "Hg1 mi
11:00 AM88 °FScattered clouds.1 mph33%29.98 "Hg1 mi
10:00 AM84 °FScattered clouds.5 mph35%29.98 "Hg1 mi
9:00 AM81 °FScattered clouds.8 mph39%29.98 "Hg1 mi
Weather by CustomWeather, © 2014

See weather overviewHow to use our weather pages